Time,TemperatureF,DewpointF,PressureIn,WindDirection,WindDirectionDegrees,WindSpeedMPH,WindSpeedGustMPH,Humidity,HourlyPrecipIn,Conditions,Clouds,dailyrainin,SoftwareType,DateUTC
2013-03-31 00:00:00,33.6,9.5,31.01,North,0,0.0,0.0,36,0.00,,---,0.00,VWS V14.00,2013-03-31 04:00:00,
2013-03-31 00:02:00,33.6,8.9,31.01,North,0,0.0,0.0,35,0.00,,---,0.00,VWS V14.00,2013-03-31 04:02:00,
2013-03-31 00:03:00,33.6,8.9,31.01,North,0,0.0,0.0,35,0.00,,---,0.00,VWS V14.00,2013-03-31 04:03:00,
2013-03-31 00:09:00,33.4,9.4,31.01,North,0,0.0,0.0,36,0.00,,---,0.00,VWS V14.00,2013-03-31 04:09:00,
2013-03-31 00:14:00,33.3,9.2,31.01,North,0,0.0,0.0,36,0.00,,---,0.00,VWS V14.00,2013-03-31 04:14:00,
2013-03-31 00:19:00,33.1,9.1,31.01,North,0,0.0,0.0,36,0.00,,---,0.00,VWS V14.00,2013-03-31 04:19:00,
2013-03-31 00:26:00,33.1,9.1,31.01,North,0,0.0,0.0,36,0.00,,---,0.00,VWS V14.00,2013-03-31 04:26:00,
2013-03-31 00:32:00,32.9,8.9,31.01,North,0,0.0,0.0,36,0.00,,---,0.00,VWS V14.00,2013-03-31 04:32:00,
2013-03-31 00:37:00,32.7,8.7,31.01,North,0,0.0,0.0,36,0.00,,---,0.00,VWS V14.00,2013-03-31 04:37:00,
2013-03-31 00:42:00,32.5,9.2,31.01,North,0,0.0,0.0,37,0.00,,---,0.00,VWS V14.00,2013-03-31 04:42:00,
2013-03-31 00:48:00,32.4,9.6,31.01,North,0,0.0,0.0,38,0.00,,---,0.00,VWS V14.00,2013-03-31 04:48:00,
2013-03-31 00:53:00,32.4,10.8,31.01,North,0,0.0,0.0,40,0.00,,---,0.00,VWS V14.00,2013-03-31 04:53:00,
2013-03-31 00:58:00,32.5,10.9,31.01,North,0,0.0,0.0,40,0.00,,---,0.00,VWS V14.00,2013-03-31 04:58:00,
2013-03-31 01:03:00,32.5,10.9,31.01,North,0,0.0,0.0,40,0.00,,---,0.00,VWS V14.00,2013-03-31 05:03:00,
2013-03-31 01:08:00,32.5,10.9,31.01,North,0,0.0,0.0,40,0.00,,---,0.00,VWS V14.00,2013-03-31 05:08:00,
2013-03-31 01:13:00,32.4,10.8,31.01,North,0,0.0,0.0,40,0.00,,---,0.00,VWS V14.00,2013-03-31 05:13:00,
2013-03-31 01:18:00,32.4,10.8,31.01,North,0,0.0,0.0,40,0.00,,---,0.00,VWS V14.00,2013-03-31 05:18:00,
2013-03-31 01:24:00,32.2,10.6,31.01,North,0,0.0,0.0,40,0.00,,---,0.00,VWS V14.00,2013-03-31 05:24:00,
2013-03-31 01:30:00,32.0,11.0,31.01,North,0,0.0,0.0,41,0.00,,---,0.00,VWS V14.00,2013-03-31 05:30:00,
2013-03-31 01:36:00,31.8,10.8,31.01,North,0,0.0,0.0,41,0.00,,---,0.00,VWS V14.00,2013-03-31 05:36:00,
2013-03-31 01:42:00,31.3,10.3,31.01,North,0,0.0,0.0,41,0.00,,---,0.00,VWS V14.00,2013-03-31 05:42:00,
2013-03-31 01:47:00,30.9,10.0,31.01,North,0,0.0,0.0,41,0.00,,---,0.00,VWS V14.00,2013-03-31 05:47:00,
2013-03-31 01:53:00,30.7,9.8,31.01,North,0,0.0,0.0,41,0.00,,---,0.00,VWS V14.00,2013-03-31 05:53:00,
2013-03-31 01:58:00,30.7,9.8,31.01,North,0,0.0,0.0,41,0.00,,---,0.00,VWS V14.00,2013-03-31 05:58:00,
2013-03-31 02:03:00,30.6,9.7,31.01,North,0,0.0,0.0,41,0.00,,---,0.00,VWS V14.00,2013-03-31 06:03:00,
2013-03-31 02:09:00,30.6,10.2,31.01,North,0,0.0,0.0,42,0.00,,---,0.00,VWS V14.00,2013-03-31 06:09:00,
2013-03-31 02:14:00,30.4,9.5,31.01,North,0,0.0,0.0,41,0.00,,---,0.00,VWS V14.00,2013-03-31 06:14:00,
2013-03-31 02:20:00,30.2,9.9,31.01,North,0,0.0,0.0,42,0.00,,---,0.00,VWS V14.00,2013-03-31 06:20:00,
2013-03-31 02:26:00,30.0,9.7,31.01,North,0,0.0,0.0,42,0.00,,---,0.00,VWS V14.00,2013-03-31 06:26:00,
2013-03-31 02:31:00,29.8,9.6,31.01,North,0,0.0,0.0,42,0.00,,---,0.00,VWS V14.00,2013-03-31 06:31:00,
2013-03-31 02:36:00,29.7,9.4,31.01,North,0,0.0,0.0,42,0.00,,---,0.00,VWS V14.00,2013-03-31 06:36:00,
2013-03-31 02:41:00,29.7,9.4,31.01,North,0,0.0,0.0,42,0.00,,---,0.00,VWS V14.00,2013-03-31 06:41:00,
2013-03-31 02:47:00,29.7,9.4,31.01,North,0,0.0,0.0,42,0.00,,---,0.00,VWS V14.00,2013-03-31 06:47:00,
2013-03-31 02:52:00,29.5,9.2,31.01,North,0,0.0,0.0,42,0.00,,---,0.00,VWS V14.00,2013-03-31 06:52:00,
2013-03-31 02:57:00,29.5,9.2,31.01,North,0,0.0,0.0,42,0.00,,---,0.00,VWS V14.00,2013-03-31 06:57:00,
2013-03-31 03:03:00,29.3,9.1,31.01,North,0,0.0,0.0,42,0.00,,---,0.00,VWS V14.00,2013-03-31 07:03:00,
2013-03-31 03:08:00,29.1,8.9,31.01,North,0,0.0,0.0,42,0.00,,---,0.00,VWS V14.00,2013-03-31 07:08:00,
2013-03-31 03:14:00,29.1,8.9,31.01,North,0,0.0,0.0,42,0.00,,---,0.00,VWS V14.00,2013-03-31 07:14:00,
2013-03-31 03:19:00,28.9,9.3,31.01,North,0,0.0,0.0,43,0.00,,---,0.00,VWS V14.00,2013-03-31 07:19:00,
2013-03-31 03:24:00,28.9,8.7,31.01,North,0,0.0,0.0,42,0.00,,---,0.00,VWS V14.00,2013-03-31 07:24:00,
2013-03-31 03:30:00,28.8,9.1,31.01,North,0,0.0,0.0,43,0.00,,---,0.00,VWS V14.00,2013-03-31 07:30:00,
2013-03-31 03:35:00,28.8,9.1,31.01,North,0,0.0,0.0,43,0.00,,---,0.00,VWS V14.00,2013-03-31 07:35:00,
2013-03-31 03:40:00,28.6,8.9,31.01,North,0,0.0,0.0,43,0.00,,---,0.00,VWS V14.00,2013-03-31 07:40:00,
2013-03-31 03:45:00,28.6,8.9,31.01,North,0,0.0,0.0,43,0.00,,---,0.00,VWS V14.00,2013-03-31 07:45:00,
2013-03-31 03:51:00,28.4,8.8,31.01,North,0,0.0,0.0,43,0.00,,---,0.00,VWS V14.00,2013-03-31 07:51:00,
2013-03-31 03:56:00,28.2,8.6,31.01,North,0,0.0,0.0,43,0.00,,---,0.00,VWS V14.00,2013-03-31 07:56:00,
2013-03-31 04:01:00,28.2,8.6,31.01,North,0,0.0,0.0,43,0.00,,---,0.00,VWS V14.00,2013-03-31 08:01:00,
2013-03-31 04:06:00,28.2,9.1,31.01,North,0,0.0,0.0,44,0.00,,---,0.00,VWS V14.00,2013-03-31 08:06:00,
2013-03-31 04:11:00,28.0,8.9,31.01,North,0,0.0,0.0,44,0.00,,---,0.00,VWS V14.00,2013-03-31 08:11:00,
2013-03-31 04:16:00,27.9,8.8,31.01,North,0,0.0,0.0,44,0.00,,---,0.00,VWS V14.00,2013-03-31 08:16:00,
2013-03-31 04:22:00,27.9,8.8,31.01,North,0,0.0,0.0,44,0.00,,---,0.00,VWS V14.00,2013-03-31 08:22:00,
2013-03-31 04:27:00,27.7,8.6,31.01,North,0,0.0,0.0,44,0.00,,---,0.00,VWS V14.00,2013-03-31 08:27:00,
2013-03-31 04:32:00,27.7,8.6,31.01,North,0,0.0,0.0,44,0.00,,---,0.00,VWS V14.00,2013-03-31 08:32:00,
2013-03-31 04:38:00,27.7,9.1,31.01,North,0,0.0,0.0,45,0.00,,---,0.00,VWS V14.00,2013-03-31 08:38:00,
2013-03-31 04:44:00,27.7,9.1,31.01,North,0,0.0,0.0,45,0.00,,---,0.00,VWS V14.00,2013-03-31 08:44:00,
2013-03-31 04:49:00,27.5,9.0,31.01,North,0,0.0,0.0,45,0.00,,---,0.00,VWS V14.00,2013-03-31 08:49:00,
2013-03-31 04:54:00,27.5,9.0,31.01,North,0,0.0,0.0,45,0.00,,---,0.00,VWS V14.00,2013-03-31 08:54:00,
2013-03-31 04:59:00,27.5,9.0,31.01,North,0,0.0,0.0,45,0.00,,---,0.00,VWS V14.00,2013-03-31 08:59:00,
2013-03-31 05:05:00,27.3,8.8,31.01,North,0,0.0,0.0,45,0.00,,---,0.00,VWS V14.00,2013-03-31 09:05:00,
2013-03-31 05:10:00,27.3,9.8,31.01,North,0,0.0,0.0,47,0.00,,---,0.00,VWS V14.00,2013-03-31 09:10:00,
2013-03-31 05:15:00,27.3,9.3,31.01,North,0,0.0,0.0,46,0.00,,---,0.00,VWS V14.00,2013-03-31 09:15:00,
2013-03-31 05:20:00,27.1,9.1,31.01,North,0,0.0,0.0,46,0.00,,---,0.00,VWS V14.00,2013-03-31 09:20:00,
2013-03-31 05:26:00,27.0,8.9,31.01,North,0,0.0,0.0,46,0.00,,---,0.00,VWS V14.00,2013-03-31 09:26:00,
2013-03-31 05:31:00,27.0,8.9,31.01,North,0,0.0,0.0,46,0.00,,---,0.00,VWS V14.00,2013-03-31 09:31:00,
2013-03-31 05:36:00,27.0,8.9,31.01,North,0,0.0,0.0,46,0.00,,---,0.00,VWS V14.00,2013-03-31 09:36:00,
2013-03-31 05:42:00,26.8,8.8,31.01,North,0,0.0,0.0,46,0.00,,---,0.00,VWS V14.00,2013-03-31 09:42:00,
2013-03-31 05:48:00,26.8,8.8,31.01,North,0,0.0,0.0,46,0.00,,---,0.00,VWS V14.00,2013-03-31 09:48:00,
2013-03-31 05:54:00,26.8,8.8,31.01,North,0,0.0,0.0,46,0.00,,---,0.00,VWS V14.00,2013-03-31 09:54:00,
2013-03-31 06:00:00,26.6,8.6,31.01,North,0,0.0,0.0,46,0.00,,---,0.00,VWS V14.00,2013-03-31 10:00:00,
2013-03-31 06:05:00,26.6,8.6,31.01,North,0,0.0,0.0,46,0.00,,---,0.00,VWS V14.00,2013-03-31 10:05:00,
2013-03-31 06:11:00,26.4,8.5,31.01,North,0,0.0,0.0,46,0.00,,---,0.00,VWS V14.00,2013-03-31 10:11:00,
2013-03-31 06:16:00,26.4,8.9,31.01,North,0,0.0,0.0,47,0.00,,---,0.00,VWS V14.00,2013-03-31 10:16:00,
2013-03-31 06:21:00,26.4,8.9,31.01,North,0,0.0,0.0,47,0.00,,---,0.00,VWS V14.00,2013-03-31 10:21:00,
2013-03-31 06:27:00,26.4,8.9,31.01,North,0,0.0,0.0,47,0.00,,---,0.00,VWS V14.00,2013-03-31 10:27:00,
2013-03-31 06:33:00,26.8,9.7,31.01,North,0,0.0,0.0,48,0.00,,---,0.00,VWS V14.00,2013-03-31 10:33:00,
2013-03-31 06:39:00,26.8,11.1,31.01,North,0,0.0,0.0,51,0.00,,---,0.00,VWS V14.00,2013-03-31 10:39:00,
2013-03-31 06:45:00,26.6,10.9,31.01,North,0,0.0,0.0,51,0.00,,---,0.00,VWS V14.00,2013-03-31 10:45:00,
2013-03-31 06:50:00,26.8,10.6,31.01,North,0,0.0,0.0,50,0.00,,---,0.00,VWS V14.00,2013-03-31 10:50:00,
2013-03-31 06:55:00,27.0,11.3,31.01,North,0,0.0,0.0,51,0.00,,---,0.00,VWS V14.00,2013-03-31 10:55:00,
2013-03-31 07:01:00,27.1,11.4,31.01,North,0,0.0,0.0,51,0.00,,---,0.00,VWS V14.00,2013-03-31 11:01:00,
2013-03-31 07:06:00,27.1,11.0,31.01,North,0,0.0,0.0,50,0.00,,---,0.00,VWS V14.00,2013-03-31 11:06:00,
2013-03-31 07:11:00,27.3,11.1,31.01,North,0,0.0,0.0,50,0.00,,---,0.00,VWS V14.00,2013-03-31 11:11:00,
2013-03-31 07:16:00,27.7,11.5,31.01,North,0,0.0,0.0,50,0.00,,---,0.00,VWS V14.00,2013-03-31 11:16:00,
2013-03-31 07:21:00,28.0,11.8,31.01,North,0,0.0,0.0,50,0.00,,---,0.00,VWS V14.00,2013-03-31 11:21:00,
2013-03-31 07:27:00,28.4,12.1,31.01,North,0,0.0,0.0,50,0.00,,---,0.00,VWS V14.00,2013-03-31 11:27:00,
2013-03-31 07:32:00,28.6,12.3,31.01,North,0,0.0,0.0,50,0.00,,---,0.00,VWS V14.00,2013-03-31 11:32:00,
2013-03-31 07:37:00,29.1,12.8,31.01,North,0,0.0,0.0,50,0.00,,---,0.00,VWS V14.00,2013-03-31 11:37:00,
2013-03-31 07:42:00,29.7,13.8,31.01,North,0,0.0,0.0,51,0.00,,---,0.00,VWS V14.00,2013-03-31 11:42:00,
2013-03-31 07:47:00,31.1,14.6,31.01,North,0,0.0,0.0,50,0.00,,---,0.00,VWS V14.00,2013-03-31 11:47:00,
2013-03-31 07:53:00,32.5,16.0,31.01,North,0,0.0,0.0,50,0.00,,---,0.00,VWS V14.00,2013-03-31 11:53:00,
2013-03-31 07:58:00,36.0,18.7,31.01,North,0,0.0,0.0,49,0.00,,---,0.00,VWS V14.00,2013-03-31 11:58:00,
2013-03-31 08:03:00,35.4,16.2,31.01,North,0,0.0,0.0,45,0.00,,---,0.00,VWS V14.00,2013-03-31 12:03:00,
2013-03-31 08:09:00,36.0,16.7,31.01,North,0,0.0,0.0,45,0.00,,---,0.00,VWS V14.00,2013-03-31 12:09:00,
2013-03-31 08:15:00,36.7,16.8,31.01,North,0,0.0,0.0,44,0.00,,---,0.00,VWS V14.00,2013-03-31 12:15:00,
2013-03-31 08:20:00,40.3,19.6,31.01,North,0,0.0,0.0,43,0.00,,---,0.00,VWS V14.00,2013-03-31 12:20:00,
2013-03-31 08:25:00,42.8,20.2,31.01,North,0,0.0,0.0,40,0.00,,---,0.00,VWS V14.00,2013-03-31 12:25:00,
2013-03-31 08:30:00,48.4,24.0,31.01,North,0,0.0,0.0,38,0.00,,---,0.00,VWS V14.00,2013-03-31 12:30:00,
2013-03-31 08:36:00,54.5,27.4,31.01,North,0,0.0,0.0,35,0.00,,---,0.00,VWS V14.00,2013-03-31 12:36:00,
2013-03-31 08:41:00,60.3,30.3,31.01,North,0,0.0,0.0,32,0.00,,---,0.00,VWS V14.00,2013-03-31 12:41:00,
2013-03-31 08:46:00,60.8,28.4,31.01,North,0,0.0,0.0,29,0.00,,---,0.00,VWS V14.00,2013-03-31 12:46:00,
2013-03-31 08:51:00,58.3,23.6,31.01,North,0,0.0,0.0,26,0.00,,---,0.00,VWS V14.00,2013-03-31 12:51:00,
2013-03-31 08:56:00,54.7,20.5,31.01,North,0,0.0,0.0,26,0.00,,---,0.00,VWS V14.00,2013-03-31 12:56:00,
2013-03-31 09:02:00,53.6,19.6,31.01,North,0,0.0,0.0,26,0.00,,---,0.00,VWS V14.00,2013-03-31 13:02:00,
2013-03-31 09:08:00,57.4,21.9,31.01,North,0,0.0,0.0,25,0.00,,---,0.00,VWS V14.00,2013-03-31 13:08:00,
2013-03-31 09:13:00,55.2,21.0,31.01,North,0,0.0,0.0,26,0.00,,---,0.00,VWS V14.00,2013-03-31 13:13:00,
2013-03-31 09:18:00,55.4,21.1,31.01,North,0,0.0,0.0,26,0.00,,---,0.00,VWS V14.00,2013-03-31 13:18:00,
2013-03-31 09:24:00,57.2,21.7,31.01,North,0,0.0,0.0,25,0.00,,---,0.00,VWS V14.00,2013-03-31 13:24:00,
2013-03-31 09:29:00,57.6,22.0,31.01,North,0,0.0,0.0,25,0.00,,---,0.00,VWS V14.00,2013-03-31 13:29:00,
2013-03-31 09:34:00,59.0,22.3,31.01,North,0,0.0,0.0,24,0.00,,---,0.00,VWS V14.00,2013-03-31 13:34:00,
2013-03-31 09:39:00,58.1,22.5,31.01,North,0,0.0,0.0,25,0.00,,---,0.00,VWS V14.00,2013-03-31 13:39:00,
2013-03-31 09:45:00,55.0,19.9,31.01,North,0,0.0,0.0,25,0.00,,---,0.00,VWS V14.00,2013-03-31 13:45:00,
2013-03-31 09:50:00,54.3,19.3,31.01,North,0,0.0,0.0,25,0.00,,---,0.00,VWS V14.00,2013-03-31 13:50:00,
2013-03-31 09:55:00,54.3,20.2,31.01,North,0,0.0,0.0,26,0.00,,---,0.00,VWS V14.00,2013-03-31 13:55:00,
2013-03-31 10:00:00,55.0,19.9,31.01,North,0,0.0,0.0,25,0.00,,---,0.00,VWS V14.00,2013-03-31 14:00:00,
2013-03-31 10:05:00,55.2,21.0,31.01,North,0,0.0,0.0,26,0.00,,---,0.00,VWS V14.00,2013-03-31 14:05:00,
2013-03-31 10:11:00,54.5,19.4,31.01,North,0,0.0,0.0,25,0.00,,---,0.00,VWS V14.00,2013-03-31 14:11:00,
2013-03-31 10:16:00,56.7,21.3,31.01,North,0,0.0,0.0,25,0.00,,---,0.00,VWS V14.00,2013-03-31 14:16:00,
2013-03-31 10:21:00,57.9,21.4,31.01,North,0,0.0,0.0,24,0.00,,---,0.00,VWS V14.00,2013-03-31 14:21:00,
2013-03-31 10:26:00,58.5,21.8,31.01,North,0,0.0,0.0,24,0.00,,---,0.00,VWS V14.00,2013-03-31 14:26:00,
2013-03-31 10:32:00,59.0,20.2,31.01,North,0,0.0,0.0,22,0.00,,---,0.00,VWS V14.00,2013-03-31 14:32:00,
2013-03-31 10:37:00,58.5,21.8,31.01,North,0,0.0,0.0,24,0.00,,---,0.00,VWS V14.00,2013-03-31 14:37:00,
2013-03-31 10:42:00,58.3,19.6,31.01,North,0,0.0,0.0,22,0.00,,---,0.00,VWS V14.00,2013-03-31 14:42:00,
2013-03-31 10:47:00,59.2,20.4,31.01,North,0,0.0,0.0,22,0.00,,---,0.00,VWS V14.00,2013-03-31 14:47:00,
2013-03-31 10:53:00,59.7,20.8,31.01,North,0,0.0,0.0,22,0.00,,---,0.00,VWS V14.00,2013-03-31 14:53:00,
2013-03-31 10:59:00,61.9,21.5,31.01,North,0,0.0,0.0,21,0.00,,---,0.00,VWS V14.00,2013-03-31 14:59:00,
2013-03-31 11:04:00,63.9,23.2,31.01,North,0,0.0,0.0,21,0.00,,---,0.00,VWS V14.00,2013-03-31 15:04:00,
2013-03-31 11:09:00,63.3,19.1,31.01,North,0,0.0,0.0,18,0.00,,---,0.00,VWS V14.00,2013-03-31 15:09:00,
2013-03-31 11:14:00,62.4,19.6,31.01,North,0,0.0,0.0,19,0.00,,---,0.00,VWS V14.00,2013-03-31 15:14:00,
2013-03-31 11:20:00,61.3,18.8,31.01,North,0,0.0,0.0,19,0.00,,---,0.00,VWS V14.00,2013-03-31 15:20:00,
2013-03-31 11:25:00,61.0,18.5,31.01,North,0,0.0,0.0,19,0.00,,---,0.00,VWS V14.00,2013-03-31 15:25:00,
2013-03-31 11:30:00,61.5,18.9,31.01,North,0,0.0,0.0,19,0.00,,---,0.00,VWS V14.00,2013-03-31 15:30:00,
2013-03-31 11:35:00,61.3,18.8,31.01,North,0,0.0,0.0,19,0.00,,---,0.00,VWS V14.00,2013-03-31 15:35:00,
2013-03-31 11:40:00,61.7,19.0,31.01,North,0,0.0,0.0,19,0.00,,---,0.00,VWS V14.00,2013-03-31 15:40:00,
2013-03-31 11:46:00,62.2,19.5,31.01,North,0,0.0,0.0,19,0.00,,---,0.00,VWS V14.00,2013-03-31 15:46:00,
2013-03-31 11:51:00,62.6,18.5,31.01,North,0,0.0,0.0,18,0.00,,---,0.00,VWS V14.00,2013-03-31 15:51:00,
2013-03-31 11:57:00,63.3,19.1,31.01,North,0,0.0,0.0,18,0.00,,---,0.00,VWS V14.00,2013-03-31 15:57:00,
2013-03-31 12:02:00,63.3,19.1,31.01,North,0,0.0,0.0,18,0.00,,---,0.00,VWS V14.00,2013-03-31 16:02:00,
2013-03-31 12:09:00,62.6,18.5,31.01,North,0,0.0,0.0,18,0.00,,---,0.00,VWS V14.00,2013-03-31 16:09:00,
2013-03-31 12:15:00,62.8,18.7,31.01,North,0,0.0,0.0,18,0.00,,---,0.00,VWS V14.00,2013-03-31 16:15:00,
2013-03-31 12:20:00,62.6,18.5,31.01,North,0,0.0,0.0,18,0.00,,---,0.00,VWS V14.00,2013-03-31 16:20:00,
2013-03-31 12:25:00,63.5,19.3,31.01,North,0,0.0,0.0,18,0.00,,---,0.00,VWS V14.00,2013-03-31 16:25:00,
2013-03-31 12:31:00,63.9,19.6,31.01,North,0,0.0,0.0,18,0.00,,---,0.00,VWS V14.00,2013-03-31 16:31:00,
2013-03-31 12:36:00,64.8,20.3,31.01,North,0,0.0,0.0,18,0.00,,---,0.00,VWS V14.00,2013-03-31 16:36:00,
2013-03-31 12:41:00,64.4,20.0,31.01,North,0,0.0,0.0,18,0.00,,---,0.00,VWS V14.00,2013-03-31 16:41:00,
2013-03-31 12:47:00,64.2,19.9,31.01,North,0,0.0,0.0,18,0.00,,---,0.00,VWS V14.00,2013-03-31 16:47:00,
2013-03-31 12:52:00,64.9,20.4,31.01,North,0,0.0,0.0,18,0.00,,---,0.00,VWS V14.00,2013-03-31 16:52:00,
2013-03-31 12:58:00,64.0,19.7,31.01,North,0,0.0,0.0,18,0.00,,---,0.00,VWS V14.00,2013-03-31 16:58:00,
2013-03-31 13:03:00,64.6,20.1,31.01,North,0,0.0,0.0,18,0.00,,---,0.00,VWS V14.00,2013-03-31 17:03:00,
2013-03-31 13:08:00,65.1,20.6,31.01,North,0,0.0,0.0,18,0.00,,---,0.00,VWS V14.00,2013-03-31 17:08:00,
2013-03-31 13:13:00,64.6,20.1,31.01,North,0,0.0,0.0,18,0.00,,---,0.00,VWS V14.00,2013-03-31 17:13:00,
2013-03-31 13:19:00,64.4,20.0,31.01,North,0,0.0,0.0,18,0.00,,---,0.00,VWS V14.00,2013-03-31 17:19:00,
2013-03-31 13:24:00,63.3,19.1,31.01,North,0,0.0,0.0,18,0.00,,---,0.00,VWS V14.00,2013-03-31 17:24:00,
2013-03-31 13:29:00,63.1,19.0,31.01,North,0,0.0,0.0,18,0.00,,---,0.00,VWS V14.00,2013-03-31 17:29:00,
2013-03-31 13:34:00,63.1,19.0,31.01,North,0,0.0,0.0,18,0.00,,---,0.00,VWS V14.00,2013-03-31 17:34:00,
2013-03-31 13:39:00,63.0,18.8,31.01,North,0,0.0,0.0,18,0.00,,---,0.00,VWS V14.00,2013-03-31 17:39:00,
2013-03-31 13:44:00,63.5,19.3,31.01,North,0,0.0,0.0,18,0.00,,---,0.00,VWS V14.00,2013-03-31 17:44:00,
2013-03-31 13:49:00,63.5,19.3,31.01,North,0,0.0,0.0,18,0.00,,---,0.00,VWS V14.00,2013-03-31 17:49:00,
2013-03-31 13:55:00,63.0,18.8,31.01,North,0,0.0,0.0,18,0.00,,---,0.00,VWS V14.00,2013-03-31 17:55:00,
2013-03-31 14:00:00,63.1,19.0,31.01,North,0,0.0,0.0,18,0.00,,---,0.00,VWS V14.00,2013-03-31 18:00:00,
2013-03-31 14:05:00,63.0,18.8,31.01,North,0,0.0,0.0,18,0.00,,---,0.00,VWS V14.00,2013-03-31 18:05:00,
2013-03-31 14:10:00,62.8,18.7,31.01,North,0,0.0,0.0,18,0.00,,---,0.00,VWS V14.00,2013-03-31 18:10:00,
2013-03-31 14:15:00,62.6,18.5,31.01,North,0,0.0,0.0,18,0.00,,---,0.00,VWS V14.00,2013-03-31 18:15:00,
2013-03-31 14:20:00,63.5,19.3,31.01,North,0,0.0,0.0,18,0.00,,---,0.00,VWS V14.00,2013-03-31 18:20:00,
2013-03-31 14:25:00,63.9,19.6,31.01,North,0,0.0,0.0,18,0.00,,---,0.00,VWS V14.00,2013-03-31 18:25:00,
2013-03-31 14:30:00,63.0,18.8,31.01,North,0,0.0,0.0,18,0.00,,---,0.00,VWS V14.00,2013-03-31 18:30:00,
2013-03-31 14:35:00,63.3,19.1,31.01,North,0,0.0,0.0,18,0.00,,---,0.00,VWS V14.00,2013-03-31 18:35:00,
2013-03-31 14:40:00,63.5,19.3,31.01,North,0,0.0,0.0,18,0.00,,---,0.00,VWS V14.00,2013-03-31 18:40:00,
2013-03-31 14:45:00,63.5,19.3,31.01,North,0,0.0,0.0,18,0.00,,---,0.00,VWS V14.00,2013-03-31 18:45:00,
2013-03-31 14:50:00,63.0,18.8,31.01,North,0,0.0,0.0,18,0.00,,---,0.00,VWS V14.00,2013-03-31 18:50:00,
2013-03-31 14:55:00,62.6,18.5,31.01,North,0,0.0,0.0,18,0.00,,---,0.00,VWS V14.00,2013-03-31 18:55:00,
2013-03-31 15:00:00,61.3,18.8,31.01,North,0,0.0,0.0,19,0.00,,---,0.00,VWS V14.00,2013-03-31 19:00:00,
2013-03-31 15:05:00,60.6,18.2,31.01,North,0,0.0,0.0,19,0.00,,---,0.00,VWS V14.00,2013-03-31 19:05:00,
2013-03-31 15:10:00,60.6,18.2,31.01,North,0,0.0,0.0,19,0.00,,---,0.00,VWS V14.00,2013-03-31 19:10:00,
2013-03-31 15:15:00,60.4,18.0,31.01,North,0,0.0,0.0,19,0.00,,---,0.00,VWS V14.00,2013-03-31 19:15:00,
2013-03-31 15:20:00,61.0,18.5,31.01,North,0,0.0,0.0,19,0.00,,---,0.00,VWS V14.00,2013-03-31 19:20:00,
2013-03-31 15:26:00,61.0,18.5,31.01,North,0,0.0,0.0,19,0.00,,---,0.00,VWS V14.00,2013-03-31 19:26:00,
2013-03-31 15:32:00,60.6,18.2,31.01,North,0,0.0,0.0,19,0.00,,---,0.00,VWS V14.00,2013-03-31 19:32:00,
2013-03-31 15:39:00,60.6,18.2,31.01,North,0,0.0,0.0,19,0.00,,---,0.00,VWS V14.00,2013-03-31 19:39:00,
2013-03-31 15:44:00,60.4,18.0,31.01,North,0,0.0,0.0,19,0.00,,---,0.00,VWS V14.00,2013-03-31 19:44:00,
2013-03-31 15:50:00,60.4,18.0,31.01,North,0,0.0,0.0,19,0.00,,---,0.00,VWS V14.00,2013-03-31 19:50:00,
2013-03-31 15:56:00,60.4,18.0,31.01,North,0,0.0,0.0,19,0.00,,---,0.00,VWS V14.00,2013-03-31 19:56:00,
2013-03-31 16:01:00,60.4,18.0,31.01,North,0,0.0,0.0,19,0.00,,---,0.00,VWS V14.00,2013-03-31 20:01:00,
2013-03-31 16:07:00,59.5,17.3,31.01,North,0,0.0,0.0,19,0.00,,---,0.00,VWS V14.00,2013-03-31 20:07:00,
2013-03-31 16:12:00,59.0,16.8,31.01,North,0,0.0,0.0,19,0.00,,---,0.00,VWS V14.00,2013-03-31 20:12:00,
2013-03-31 16:17:00,58.8,16.7,31.01,North,0,0.0,0.0,19,0.00,,---,0.00,VWS V14.00,2013-03-31 20:17:00,
2013-03-31 16:22:00,58.5,16.4,31.01,North,0,0.0,0.0,19,0.00,,---,0.00,VWS V14.00,2013-03-31 20:22:00,
2013-03-31 16:27:00,58.3,16.2,31.01,North,0,0.0,0.0,19,0.00,,---,0.00,VWS V14.00,2013-03-31 20:27:00,
2013-03-31 16:32:00,57.9,15.9,31.01,North,0,0.0,0.0,19,0.00,,---,0.00,VWS V14.00,2013-03-31 20:32:00,
2013-03-31 16:37:00,58.8,16.7,31.01,North,0,0.0,0.0,19,0.00,,---,0.00,VWS V14.00,2013-03-31 20:37:00,
2013-03-31 16:42:00,58.8,16.7,31.01,North,0,0.0,0.0,19,0.00,,---,0.00,VWS V14.00,2013-03-31 20:42:00,
2013-03-31 16:48:00,58.5,16.4,31.01,North,0,0.0,0.0,19,0.00,,---,0.00,VWS V14.00,2013-03-31 20:48:00,
2013-03-31 16:53:00,58.5,16.4,31.01,North,0,0.0,0.0,19,0.00,,---,0.00,VWS V14.00,2013-03-31 20:53:00,
2013-03-31 16:58:00,58.5,16.4,31.01,North,0,0.0,0.0,19,0.00,,---,0.00,VWS V14.00,2013-03-31 20:58:00,
2013-03-31 17:03:00,58.1,16.1,31.01,North,0,0.0,0.0,19,0.00,,---,0.00,VWS V14.00,2013-03-31 21:03:00,
2013-03-31 17:09:00,57.2,15.3,31.01,North,0,0.0,0.0,19,0.00,,---,0.00,VWS V14.00,2013-03-31 21:09:00,
2013-03-31 17:14:00,56.3,15.8,31.01,North,0,0.0,0.0,20,0.00,,---,0.00,VWS V14.00,2013-03-31 21:14:00,
2013-03-31 17:19:00,55.9,15.5,31.01,North,0,0.0,0.0,20,0.00,,---,0.00,VWS V14.00,2013-03-31 21:19:00,
2013-03-31 17:24:00,55.6,15.2,31.01,North,0,0.0,0.0,20,0.00,,---,0.00,VWS V14.00,2013-03-31 21:24:00,
2013-03-31 17:29:00,55.2,14.9,31.01,North,0,0.0,0.0,20,0.00,,---,0.00,VWS V14.00,2013-03-31 21:29:00,
2013-03-31 17:35:00,54.5,14.3,31.01,North,0,0.0,0.0,20,0.00,,---,0.00,VWS V14.00,2013-03-31 21:35:00,
2013-03-31 17:40:00,54.3,17.3,31.01,North,0,0.0,0.0,23,0.00,,---,0.00,VWS V14.00,2013-03-31 21:40:00,
2013-03-31 17:45:00,54.0,17.0,31.01,North,0,0.0,0.0,23,0.00,,---,0.00,VWS V14.00,2013-03-31 21:45:00,
2013-03-31 17:50:00,53.8,18.8,31.01,North,0,0.0,0.0,25,0.00,,---,0.00,VWS V14.00,2013-03-31 21:50:00,
2013-03-31 17:55:00,53.4,19.4,31.01,North,0,0.0,0.0,26,0.00,,---,0.00,VWS V14.00,2013-03-31 21:55:00,
2013-03-31 18:00:00,53.2,19.3,31.01,North,0,0.0,0.0,26,0.00,,---,0.00,VWS V14.00,2013-03-31 22:00:00,
2013-03-31 18:06:00,53.1,19.1,31.01,North,0,0.0,0.0,26,0.00,,---,0.00,VWS V14.00,2013-03-31 22:06:00,
2013-03-31 18:12:00,52.7,19.7,31.01,North,0,0.0,0.0,27,0.00,,---,0.00,VWS V14.00,2013-03-31 22:12:00,
2013-03-31 18:17:00,52.3,19.4,31.01,North,0,0.0,0.0,27,0.00,,---,0.00,VWS V14.00,2013-03-31 22:17:00,
2013-03-31 18:23:00,52.2,19.2,31.01,North,0,0.0,0.0,27,0.00,,---,0.00,VWS V14.00,2013-03-31 22:23:00,
2013-03-31 18:28:00,52.0,19.1,31.01,North,0,0.0,0.0,27,0.00,,---,0.00,VWS V14.00,2013-03-31 22:28:00,
2013-03-31 18:33:00,51.8,18.9,31.01,North,0,0.0,0.0,27,0.00,,---,0.00,VWS V14.00,2013-03-31 22:33:00,
2013-03-31 18:38:00,51.6,18.8,31.01,North,0,0.0,0.0,27,0.00,,---,0.00,VWS V14.00,2013-03-31 22:38:00,
2013-03-31 18:44:00,51.6,19.6,31.01,North,0,0.0,0.0,28,0.00,,---,0.00,VWS V14.00,2013-03-31 22:44:00,
2013-03-31 18:49:00,51.4,19.4,31.01,North,0,0.0,0.0,28,0.00,,---,0.00,VWS V14.00,2013-03-31 22:49:00,
2013-03-31 18:54:00,51.3,19.3,31.01,North,0,0.0,0.0,28,0.00,,---,0.00,VWS V14.00,2013-03-31 22:54:00,
2013-03-31 18:59:00,51.1,20.0,31.01,North,0,0.0,0.0,29,0.00,,---,0.00,VWS V14.00,2013-03-31 22:59:00,
2013-03-31 19:04:00,51.1,20.0,31.01,North,0,0.0,0.0,29,0.00,,---,0.00,VWS V14.00,2013-03-31 23:04:00,
2013-03-31 19:10:00,50.9,19.8,31.01,North,0,0.0,0.0,29,0.00,,---,0.00,VWS V14.00,2013-03-31 23:10:00,
2013-03-31 19:15:00,50.7,20.4,31.01,North,0,0.0,0.0,30,0.00,,---,0.00,VWS V14.00,2013-03-31 23:15:00,
2013-03-31 19:20:00,50.7,20.4,31.01,North,0,0.0,0.0,30,0.00,,---,0.00,VWS V14.00,2013-03-31 23:20:00,
2013-03-31 19:26:00,50.7,20.4,31.01,North,0,0.0,0.0,30,0.00,,---,0.00,VWS V14.00,2013-03-31 23:26:00,
2013-03-31 19:31:00,50.5,20.3,31.01,North,0,0.0,0.0,30,0.00,,---,0.00,VWS V14.00,2013-03-31 23:31:00,
2013-03-31 19:37:00,50.5,21.0,31.01,North,0,0.0,0.0,31,0.00,,---,0.00,VWS V14.00,2013-03-31 23:37:00,
2013-03-31 19:43:00,50.4,21.6,31.01,North,0,0.0,0.0,32,0.00,,---,0.00,VWS V14.00,2013-03-31 23:43:00,
2013-03-31 19:49:00,50.2,21.5,31.01,North,0,0.0,0.0,32,0.00,,---,0.00,VWS V14.00,2013-03-31 23:49:00,
2013-03-31 19:54:00,49.8,24.0,31.01,North,0,0.0,0.0,36,0.00,,---,0.00,VWS V14.00,2013-03-31 23:54:00,
2013-03-31 20:00:00,49.5,24.3,31.01,North,0,0.0,0.0,37,0.00,,---,0.00,VWS V14.00,2013-04-01 00:00:00,
2013-03-31 20:05:00,49.1,24.0,31.01,North,0,0.0,0.0,37,0.00,,---,0.00,VWS V14.00,2013-04-01 00:05:00,
2013-03-31 20:10:00,48.9,24.5,31.01,North,0,0.0,0.0,38,0.00,,---,0.00,VWS V14.00,2013-04-01 00:10:00,
2013-03-31 20:16:00,48.7,24.3,31.01,North,0,0.0,0.0,38,0.00,,---,0.00,VWS V14.00,2013-04-01 00:16:00,
2013-03-31 20:22:00,48.6,24.7,31.01,North,0,0.0,0.0,39,0.00,,---,0.00,VWS V14.00,2013-04-01 00:22:00,
2013-03-31 20:27:00,48.4,24.6,31.01,North,0,0.0,0.0,39,0.00,,---,0.00,VWS V14.00,2013-04-01 00:27:00,
2013-03-31 20:32:00,48.2,25.0,31.01,North,0,0.0,0.0,40,0.00,,---,0.00,VWS V14.00,2013-04-01 00:32:00,
2013-03-31 20:37:00,48.0,24.9,31.01,North,0,0.0,0.0,40,0.00,,---,0.00,VWS V14.00,2013-04-01 00:37:00,
2013-03-31 20:43:00,47.8,25.3,31.01,North,0,0.0,0.0,41,0.00,,---,0.00,VWS V14.00,2013-04-01 00:43:00,
2013-03-31 20:48:00,47.8,25.3,31.01,North,0,0.0,0.0,41,0.00,,---,0.00,VWS V14.00,2013-04-01 00:48:00,
2013-03-31 20:53:00,47.8,25.3,31.01,North,0,0.0,0.0,41,0.00,,---,0.00,VWS V14.00,2013-04-01 00:53:00,
2013-03-31 20:58:00,47.8,25.3,31.01,North,0,0.0,0.0,41,0.00,,---,0.00,VWS V14.00,2013-04-01 00:58:00,
2013-03-31 21:04:00,47.7,25.1,31.01,North,0,0.0,0.0,41,0.00,,---,0.00,VWS V14.00,2013-04-01 01:04:00,
2013-03-31 21:09:00,47.7,25.7,31.01,North,0,0.0,0.0,42,0.00,,---,0.00,VWS V14.00,2013-04-01 01:09:00,
2013-03-31 21:14:00,47.7,25.1,31.01,North,0,0.0,0.0,41,0.00,,---,0.00,VWS V14.00,2013-04-01 01:14:00,
2013-03-31 21:19:00,47.7,25.1,31.01,North,0,0.0,0.0,41,0.00,,---,0.00,VWS V14.00,2013-04-01 01:19:00,
2013-03-31 21:24:00,47.5,25.5,31.01,North,0,0.0,0.0,42,0.00,,---,0.00,VWS V14.00,2013-04-01 01:24:00,
2013-03-31 21:29:00,47.5,25.0,31.01,North,0,0.0,0.0,41,0.00,,---,0.00,VWS V14.00,2013-04-01 01:29:00,
2013-03-31 21:35:00,47.5,25.0,31.01,North,0,0.0,0.0,41,0.00,,---,0.00,VWS V14.00,2013-04-01 01:35:00,
2013-03-31 21:40:00,47.5,24.4,31.01,North,0,0.0,0.0,40,0.00,,---,0.00,VWS V14.00,2013-04-01 01:40:00,
2013-03-31 21:45:00,47.5,24.4,31.01,North,0,0.0,0.0,40,0.00,,---,0.00,VWS V14.00,2013-04-01 01:45:00,
2013-03-31 21:51:00,47.7,24.5,31.01,North,0,0.0,0.0,40,0.00,,---,0.00,VWS V14.00,2013-04-01 01:51:00,
2013-03-31 21:57:00,47.7,24.5,31.01,North,0,0.0,0.0,40,0.00,,---,0.00,VWS V14.00,2013-04-01 01:57:00,
2013-03-31 22:02:00,47.7,23.9,31.01,North,0,0.0,0.0,39,0.00,,---,0.00,VWS V14.00,2013-04-01 02:02:00,
2013-03-31 22:07:00,47.7,23.9,31.01,North,0,0.0,0.0,39,0.00,,---,0.00,VWS V14.00,2013-04-01 02:07:00,
2013-03-31 22:13:00,47.7,23.9,31.01,North,0,0.0,0.0,39,0.00,,---,0.00,VWS V14.00,2013-04-01 02:13:00,
2013-03-31 22:18:00,47.8,23.5,31.01,North,0,0.0,0.0,38,0.00,,---,0.00,VWS V14.00,2013-04-01 02:18:00,
2013-03-31 22:23:00,47.7,23.9,31.01,North,0,0.0,0.0,39,0.00,,---,0.00,VWS V14.00,2013-04-01 02:23:00,
2013-03-31 22:28:00,47.3,23.6,31.01,North,0,0.0,0.0,39,0.00,,---,0.00,VWS V14.00,2013-04-01 02:28:00,
2013-03-31 22:33:00,46.9,23.9,31.01,North,0,0.0,0.0,40,0.00,,---,0.00,VWS V14.00,2013-04-01 02:33:00,
2013-03-31 22:39:00,46.4,24.6,31.01,North,0,0.0,0.0,42,0.00,,---,0.00,VWS V14.00,2013-04-01 02:39:00,
2013-03-31 22:44:00,45.9,26.3,31.01,North,0,0.0,0.0,46,0.00,,---,0.00,VWS V14.00,2013-04-01 02:44:00,
2013-03-31 22:49:00,45.5,27.0,31.01,North,0,0.0,0.0,48,0.00,,---,0.00,VWS V14.00,2013-04-01 02:49:00,
2013-03-31 22:54:00,45.3,26.8,31.01,North,0,0.0,0.0,48,0.00,,---,0.00,VWS V14.00,2013-04-01 02:54:00,
2013-03-31 22:59:00,45.3,27.3,31.01,North,0,0.0,0.0,49,0.00,,---,0.00,VWS V14.00,2013-04-01 02:59:00,
2013-03-31 23:05:00,45.3,26.8,31.01,North,0,0.0,0.0,48,0.00,,---,0.00,VWS V14.00,2013-04-01 03:05:00,
2013-03-31 23:10:00,45.5,27.0,31.01,North,0,0.0,0.0,48,0.00,,---,0.00,VWS V14.00,2013-04-01 03:10:00,
2013-03-31 23:15:00,45.1,27.1,31.01,North,0,0.0,0.0,49,0.00,,---,0.00,VWS V14.00,2013-04-01 03:15:00,
2013-03-31 23:20:00,44.6,27.6,31.01,North,0,0.0,0.0,51,0.00,,---,0.00,VWS V14.00,2013-04-01 03:20:00,
2013-03-31 23:25:00,44.4,28.4,31.01,North,0,0.0,0.0,53,0.00,,---,0.00,VWS V14.00,2013-04-01 03:25:00,
2013-03-31 23:30:00,44.6,28.5,31.01,North,0,0.0,0.0,53,0.00,,---,0.00,VWS V14.00,2013-04-01 03:30:00,
2013-03-31 23:36:00,44.6,29.5,31.01,North,0,0.0,0.0,55,0.00,,---,0.00,VWS V14.00,2013-04-01 03:36:00,
2013-03-31 23:41:00,44.2,30.0,31.01,North,0,0.0,0.0,57,0.00,,---,0.00,VWS V14.00,2013-04-01 03:41:00,
2013-03-31 23:47:00,44.1,31.1,31.01,North,0,0.0,0.0,60,0.00,,---,0.00,VWS V14.00,2013-04-01 03:47:00,
2013-03-31 23:53:00,43.9,32.9,31.01,North,0,0.0,0.0,65,0.00,,---,0.00,VWS V14.00,2013-04-01 03:53:00,
2013-03-31 23:58:00,43.9,34.4,31.01,North,0,0.0,0.0,69,0.00,,---,0.00,VWS V14.00,2013-04-01 03:58:00,